| time (UTC) | temp F | wind direction | speed MPH | gust MPH | rain 1hr in | rain 24hr in | rain mn in | humidity % | barometer mb |
| 20260505011050 | 72 | 46 | 2.0 | 6.0 | 0.00 | 0.00 | 0.00 | 52 | 1010.3 |
| 20260505010553 | 73 | 21 | 2.0 | 9.0 | 0.00 | 0.00 | 0.00 | 51 | 1010.3 |
| 20260505010106 | 73 | 67 | 2.0 | 10.0 | 0.00 | 0.00 | 0.00 | 51 | 1010.2 |
| 20260505005551 | 73 | 150 | 2.0 | 10.0 | 0.00 | 0.00 | 0.00 | 50 | 1010.3 |
| 20260505005051 | 73 | 75 | 4.0 | 10.0 | 0.00 | 0.00 | 0.00 | 50 | 1010.2 |
| 20260505004553 | 74 | 38 | 3.0 | 9.0 | 0.00 | 0.00 | 0.00 | 50 | 1010.1 |
| 20260505004050 | 74 | 330 | 4.0 | 9.0 | 0.00 | 0.00 | 0.00 | 49 | 1010.1 |
| 20260505003550 | 74 | 41 | 4.0 | 11.0 | 0.00 | 0.00 | 0.00 | 49 | 1010.2 |
| 20260505003053 | 74 | 291 | 3.0 | 11.0 | 0.00 | 0.00 | 0.00 | 49 | 1010.2 |
| 20260505002551 | 75 | 84 | 2.0 | 11.0 | 0.00 | 0.00 | 0.00 | 49 | 1010.1 |
| 20260505002051 | 75 | 144 | 4.0 | 11.0 | 0.00 | 0.00 | 0.00 | 48 | 1010.1 |
| 20260505001556 | 75 | 49 | 4.0 | 11.0 | 0.00 | 0.00 | 0.00 | 48 | 1010.1 |
| 20260505001054 | 76 | 359 | 3.0 | 11.0 | 0.00 | 0.00 | 0.00 | 47 | 1010.2 |
| 20260505000551 | 76 | 70 | 3.0 | 12.0 | 0.00 | 0.00 | 0.00 | 46 | 1010.2 |
| 20260504235554 | 77 | 146 | 5.0 | 12.0 | 0.00 | 0.00 | 0.00 | 45 | 1010.2 |
| 20260504235051 | 78 | 55 | 3.0 | 11.0 | 0.00 | 0.00 | 0.00 | 44 | 1010.3 |
| 20260504234554 | 78 | 99 | 4.0 | 11.0 | 0.00 | 0.00 | 0.00 | 44 | 1010.2 |
| 20260504234051 | 79 | 48 | 3.0 | 12.0 | 0.00 | 0.00 | 0.00 | 43 | 1010.3 |
| 20260504233553 | 79 | 307 | 4.0 | 15.0 | 0.00 | 0.00 | 0.00 | 42 | 1010.2 |
| 20260504233055 | 79 | 123 | 5.0 | 15.0 | 0.00 | 0.00 | 0.00 | 42 | 1010.4 |
| 20260504232553 | 80 | 117 | 6.0 | 13.0 | 0.00 | 0.00 | 0.00 | 42 | 1010.3 |
| 20260504232051 | 80 | 328 | 4.0 | 12.0 | 0.00 | 0.00 | 0.00 | 42 | 1010.3 |
| 20260504231557 | 80 | 60 | 3.0 | 15.0 | 0.00 | 0.00 | 0.00 | 42 | 1010.3 |
| 20260504231051 | 80 | 21 | 5.0 | 15.0 | 0.00 | 0.00 | 0.00 | 42 | 1010.2 |
| 20260504230555 | 80 | 81 | 4.0 | 12.0 | 0.00 | 0.00 | 0.00 | 42 | 1010.3 |
| 20260504230111 | 80 | 280 | 5.0 | 12.0 | 0.00 | 0.00 | 0.00 | 40 | 1010.4 |
| 20260504225553 | 81 | 39 | 4.0 | 11.0 | 0.00 | 0.00 | 0.00 | 40 | 1010.3 |
| 20260504225054 | 81 | 91 | 3.0 | 11.0 | 0.00 | 0.00 | 0.00 | 42 | 1010.3 |
| 20260504224612 | 81 | 328 | 4.0 | 13.0 | 0.00 | 0.00 | 0.00 | 40 | 1010.5 |
| 20260504224052 | 81 | 285 | 3.0 | 13.0 | 0.00 | 0.00 | 0.00 | 40 | 1010.5 |
| 20260504223551 | 81 | 46 | 5.0 | 12.0 | 0.00 | 0.00 | 0.00 | 39 | 1010.4 |
| 20260504223103 | 81 | 28 | 6.0 | 14.0 | 0.00 | 0.00 | 0.00 | 39 | 1010.4 |
| 20260504222550 | 81 | 282 | 5.0 | 16.0 | 0.00 | 0.00 | 0.00 | 39 | 1010.5 |
| 20260504222050 | 81 | 316 | 6.0 | 16.0 | 0.00 | 0.00 | 0.00 | 40 | 1010.5 |
| 20260504221555 | 81 | 37 | 5.0 | 17.0 | 0.00 | 0.00 | 0.00 | 40 | 1010.5 |
| 20260504221050 | 81 | 323 | 7.0 | 17.0 | 0.00 | 0.00 | 0.00 | 40 | 1010.6 |
| 20260504220552 | 81 | 69 | 6.0 | 17.0 | 0.00 | 0.00 | 0.00 | 39 | 1010.4 |
| 20260504220059 | 81 | 26 | 5.0 | 15.0 | 0.00 | 0.00 | 0.00 | 40 | 1010.5 |
| 20260504215553 | 81 | 10 | 6.0 | 15.0 | 0.00 | 0.00 | 0.00 | 39 | 1010.6 |
| 20260504215054 | 82 | 68 | 5.0 | 15.0 | 0.00 | 0.00 | 0.00 | 40 | 1010.4 |
| 20260504214557 | 82 | 9 | 4.0 | 13.0 | 0.00 | 0.00 | 0.00 | 40 | 1010.6 |
| 20260504214053 | 82 | 77 | 5.0 | 13.0 | 0.00 | 0.00 | 0.00 | 40 | 1010.5 |
| 20260504213551 | 82 | 41 | 6.0 | 15.0 | 0.00 | 0.00 | 0.00 | 39 | 1010.4 |
| 20260504213101 | 82 | 338 | 6.0 | 15.0 | 0.00 | 0.00 | 0.00 | 40 | 1010.5 |
| 20260504212550 | 82 | 88 | 4.0 | 18.0 | 0.00 | 0.00 | 0.00 | 39 | 1010.6 |
| 20260504212052 | 82 | 80 | 4.0 | 18.0 | 0.00 | 0.00 | 0.00 | 39 | 1010.5 |
| 20260504211600 | 82 | 240 | 6.0 | 18.0 | 0.00 | 0.00 | 0.00 | 38 | 1010.6 |
| 20260504211053 | 82 | 346 | 6.0 | 13.0 | 0.00 | 0.00 | 0.00 | 39 | 1010.7 |
| 20260504210552 | 82 | 81 | 5.0 | 15.0 | 0.00 | 0.00 | 0.00 | 39 | 1010.8 |
| 20260504205551 | 82 | 120 | 5.0 | 12.0 | 0.00 | 0.00 | 0.00 | 40 | 1010.8 |
| 20260504205052 | 82 | 311 | 4.0 | 12.0 | 0.00 | 0.00 | 0.00 | 40 | 1010.7 |
| 20260504204556 | 82 | 357 | 5.0 | 15.0 | 0.00 | 0.00 | 0.00 | 40 | 1010.9 |
| 20260504204048 | 82 | 41 | 5.0 | 21.0 | 0.00 | 0.00 | 0.00 | 40 | 1010.9 |
| 20260504203552 | 82 | 345 | 7.0 | 21.0 | 0.00 | 0.00 | 0.00 | 39 | 1011.1 |
| 20260504203059 | 82 | 20 | 6.0 | 13.0 | 0.00 | 0.00 | 0.00 | 38 | 1011.2 |
| 20260504202552 | 82 | 43 | 5.0 | 14.0 | 0.00 | 0.00 | 0.00 | 42 | 1011.1 |
| 20260504202055 | 82 | 347 | 4.0 | 14.0 | 0.00 | 0.00 | 0.00 | 42 | 1011.2 |
| 20260504201552 | 82 | 301 | 5.0 | 13.0 | 0.00 | 0.00 | 0.00 | 40 | 1011.3 |
| 20260504201052 | 82 | 27 | 5.0 | 15.0 | 0.00 | 0.00 | 0.00 | 40 | 1011.2 |
| 20260504200552 | 82 | 352 | 7.0 | 15.0 | 0.00 | 0.00 | 0.00 | 40 | 1011.6 |
| 20260504195551 | 82 | 50 | 4.0 | 13.0 | 0.00 | 0.00 | 0.00 | 40 | 1011.6 |
| 20260504195052 | 82 | 68 | 5.0 | 14.0 | 0.00 | 0.00 | 0.00 | 41 | 1011.6 |
| 20260504194552 | 82 | 275 | 6.0 | 14.0 | 0.00 | 0.00 | 0.00 | 41 | 1011.6 |
| 20260504194053 | 82 | 89 | 5.0 | 12.0 | 0.00 | 0.00 | 0.00 | 41 | 1011.8 |
| 20260504193552 | 82 | 340 | 4.0 | 13.0 | 0.00 | 0.00 | 0.00 | 42 | 1012.0 |
| 20260504193052 | 82 | 298 | 6.0 | 13.0 | 0.00 | 0.00 | 0.00 | 41 | 1012.1 |
| 20260504192552 | 82 | 71 | 5.0 | 12.0 | 0.00 | 0.00 | 0.00 | 43 | 1012.2 |
| 20260504192052 | 82 | 346 | 4.0 | 15.0 | 0.00 | 0.00 | 0.00 | 44 | 1012.3 |
| 20260504191606 | 82 | 324 | 6.0 | 15.0 | 0.00 | 0.00 | 0.00 | 41 | 1012.3 |
| 20260504191052 | 81 | 88 | 6.0 | 20.0 | 0.00 | 0.00 | 0.00 | 42 | 1012.3 |
| 20260504190554 | 82 | 78 | 6.0 | 20.0 | 0.00 | 0.00 | 0.00 | 41 | 1012.4 |
| 20260504190051 | 82 | 85 | 6.0 | 20.0 | 0.00 | 0.00 | 0.00 | 40 | 1012.6 |
| 20260504185552 | 82 | 55 | 5.0 | 17.0 | 0.00 | 0.00 | 0.00 | 41 | 1012.5 |
| 20260504185052 | 82 | 76 | 6.0 | 12.0 | 0.00 | 0.00 | 0.00 | 42 | 1012.6 |
| 20260504184555 | 82 | 338 | 5.0 | 11.0 | 0.00 | 0.00 | 0.00 | 41 | 1012.6 |
| 20260504184052 | 82 | 98 | 3.0 | 13.0 | 0.00 | 0.00 | 0.00 | 44 | 1012.6 |
| 20260504183552 | 82 | 83 | 4.0 | 14.0 | 0.00 | 0.00 | 0.00 | 43 | 1012.6 |
| 20260504183054 | 81 | 48 | 6.0 | 14.0 | 0.00 | 0.00 | 0.00 | 43 | 1012.8 |
| 20260504182552 | 81 | 286 | 7.0 | 14.0 | 0.00 | 0.00 | 0.00 | 41 | 1012.8 |
| 20260504182051 | 81 | 323 | 5.0 | 14.0 | 0.00 | 0.00 | 0.00 | 45 | 1012.8 |
| 20260504181602 | 81 | 109 | 7.0 | 16.0 | 0.00 | 0.00 | 0.00 | 42 | 1012.8 |
| 20260504181052 | 82 | 64 | 5.0 | 16.0 | 0.00 | 0.00 | 0.00 | 42 | 1012.9 |
| 20260504180553 | 82 | 77 | 6.0 | 13.0 | 0.00 | 0.00 | 0.00 | 44 | 1013.0 |
| 20260504180058 | 81 | 76 | 4.0 | 14.0 | 0.00 | 0.00 | 0.00 | 45 | 1012.9 |
| 20260504175551 | 81 | 92 | 3.0 | 14.0 | 0.00 | 0.00 | 0.00 | 47 | 1012.9 |
| 20260504175051 | 81 | 85 | 5.0 | 13.0 | 0.00 | 0.00 | 0.00 | 45 | 1013.1 |
| 20260504174556 | 81 | 332 | 3.0 | 13.0 | 0.00 | 0.00 | 0.00 | 45 | 1013.1 |
| 20260504174051 | 81 | 313 | 4.0 | 13.0 | 0.00 | 0.00 | 0.00 | 45 | 1013.2 |
| 20260504173552 | 80 | 26 | 6.0 | 12.0 | 0.00 | 0.00 | 0.00 | 44 | 1013.3 |
| 20260504173055 | 80 | 27 | 5.0 | 11.0 | 0.00 | 0.00 | 0.00 | 44 | 1013.4 |
| 20260504172552 | 80 | 41 | 6.0 | 17.0 | 0.00 | 0.00 | 0.00 | 46 | 1013.5 |
| 20260504172049 | 80 | 57 | 6.0 | 17.0 | 0.00 | 0.00 | 0.00 | 45 | 1013.6 |
| 20260504171557 | 81 | 308 | 4.0 | 8.0 | 0.00 | 0.00 | 0.00 | 44 | 1013.6 |
| 20260504171052 | 81 | 331 | 3.0 | 8.0 | 0.00 | 0.00 | 0.00 | 48 | 1013.6 |
| 20260504170552 | 80 | 34 | 2.0 | 14.0 | 0.00 | 0.00 | 0.00 | 49 | 1013.8 |
| 20260504160104 | 78 | 32 | 5.0 | 12.0 | 0.00 | 0.00 | 0.00 | 49 | 1014.8 |
| 20260504151048 | 75 | 99 | 3.0 | 9.0 | 0.00 | 0.00 | 0.00 | 56 | 1014.8 |
| 20260504150552 | 75 | 302 | 3.0 | 14.0 | 0.00 | 0.00 | 0.00 | 59 | 1014.9 |
| 20260504141050 | 72 | 97 | 3.0 | 7.0 | 0.00 | 0.00 | 0.00 | 62 | 1015.3 |
| 20260504140548 | 71 | 115 | 2.0 | 7.0 | 0.00 | 0.00 | 0.00 | 64 | 1015.1 |
| 20260504130550 | 65 | 94 | 1.0 | 4.0 | 0.00 | 0.00 | 0.00 | 74 | 1015.0 |
| 20260504120135 | 58 | 13 | 1.0 | 4.0 | 0.00 | 0.00 | 0.00 | 81 | 1014.5 |
| 20260504110551 | 58 | 82 | 0.0 | 2.0 | 0.00 | 0.00 | 0.00 | 79 | 1014.0 |
| 20260504100551 | 60 | 326 | 1.0 | 4.0 | 0.00 | 0.00 | 0.00 | 75 | 1014.2 |
| 20260504081604 | 60 | 330 | 2.0 | 5.0 | 0.00 | 0.00 | 0.00 | 71 | 1014.5 |
| 20260504081052 | 60 | 52 | 1.0 | 5.0 | 0.00 | 0.00 | 0.00 | 72 | 1014.6 |
| 20260504080551 | 60 | 355 | 2.0 | 5.0 | 0.00 | 0.00 | 0.00 | 71 | 1014.6 |
| 20260504050551 | 58 | 0 | 0.0 | 4.0 | 0.00 | 0.00 | 0.00 | 70 | 1016.2 |
| 20260504050106 | 58 | 37 | 1.0 | 4.0 | 0.00 | 0.00 | 0.00 | 70 | 1016.0 |
| 20260504045553 | 58 | 75 | 1.0 | 6.0 | 0.00 | 0.00 | 0.00 | 70 | 1016.1 |
| 20260504045048 | 58 | 72 | 0.0 | 6.0 | 0.00 | 0.00 | 0.00 | 70 | 1016.2 |
| 20260504044554 | 58 | 16 | 1.0 | 3.0 | 0.00 | 0.00 | 0.00 | 70 | 1016.1 |
| 20260504044048 | 58 | 42 | 1.0 | 3.0 | 0.00 | 0.00 | 0.00 | 70 | 1016.2 |
| 20260504043549 | 58 | 79 | 1.0 | 2.0 | 0.00 | 0.00 | 0.00 | 70 | 1016.2 |
| 20260504043112 | 58 | 94 | 0.0 | 2.0 | 0.00 | 0.00 | 0.00 | 70 | 1016.2 |
| 20260504042553 | 58 | 53 | 0.0 | 3.0 | 0.00 | 0.00 | 0.00 | 69 | 1016.2 |
| 20260504042052 | 58 | 44 | 0.0 | 3.0 | 0.00 | 0.00 | 0.00 | 69 | 1016.1 |
| 20260504041555 | 58 | 53 | 0.0 | 3.0 | 0.00 | 0.00 | 0.00 | 69 | 1016.2 |
| 20260504041051 | 58 | 63 | 0.0 | 3.0 | 0.00 | 0.00 | 0.00 | 68 | 1016.1 |
| 20260504040555 | 58 | 81 | 0.0 | 3.0 | 0.00 | 0.00 | 0.00 | 68 | 1016.1 |
| 20260504035555 | 58 | 44 | 1.0 | 3.0 | 0.00 | 0.00 | 0.00 | 68 | 1016.3 |
| 20260504035051 | 58 | 75 | 0.0 | 2.0 | 0.00 | 0.00 | 0.00 | 68 | 1016.3 |
| 20260504034556 | 58 | 0 | 0.0 | 2.0 | 0.00 | 0.00 | 0.00 | 68 | 1016.3 |
| 20260504034051 | 58 | 62 | 0.0 | 2.0 | 0.00 | 0.00 | 0.00 | 68 | 1016.4 |
| 20260504033548 | 59 | 65 | 0.0 | 2.0 | 0.00 | 0.00 | 0.00 | 68 | 1016.4 |
| 20260504033104 | 59 | 65 | 0.0 | 1.0 | 0.00 | 0.00 | 0.00 | 68 | 1016.5 |
| 20260504032548 | 59 | 0 | 0.0 | 2.0 | 0.00 | 0.00 | 0.00 | 67 | 1016.5 |
| 20260504032048 | 59 | 66 | 0.0 | 2.0 | 0.00 | 0.00 | 0.00 | 67 | 1016.6 |
| 20260504031558 | 59 | 0 | 0.0 | 2.0 | 0.00 | 0.00 | 0.00 | 66 | 1016.6 |
| 20260504031050 | 59 | 0 | 0.0 | 1.0 | 0.00 | 0.00 | 0.00 | 66 | 1016.6 |
| 20260504030548 | 59 | 64 | 0.0 | 2.0 | 0.00 | 0.00 | 0.00 | 66 | 1016.7 |
| 20260504030104 | 60 | 64 | 0.0 | 2.0 | 0.00 | 0.00 | 0.00 | 65 | 1016.7 |
| 20260504025551 | 60 | 0 | 0.0 | 1.0 | 0.00 | 0.00 | 0.00 | 64 | 1016.7 |
| 20260504025049 | 60 | 0 | 0.0 | 2.0 | 0.00 | 0.00 | 0.00 | 64 | 1016.6 |
| 20260504024553 | 60 | 58 | 0.0 | 2.0 | 0.00 | 0.00 | 0.00 | 63 | 1016.7 |
| 20260504024048 | 60 | 51 | 0.0 | 2.0 | 0.00 | 0.00 | 0.00 | 63 | 1016.5 |
| 20260504023548 | 60 | 0 | 0.0 | 2.0 | 0.00 | 0.00 | 0.00 | 63 | 1016.5 |
| 20260504023054 | 61 | 0 | 0.0 | 3.0 | 0.00 | 0.00 | 0.00 | 62 | 1016.5 |
| 20260504022552 | 61 | 0 | 0.0 | 3.0 | 0.00 | 0.00 | 0.00 | 62 | 1016.5 |
| 20260504022052 | 61 | 0 | 0.0 | 3.0 | 0.00 | 0.00 | 0.00 | 61 | 1016.5 |
| 20260504021556 | 61 | 70 | 0.0 | 2.0 | 0.00 | 0.00 | 0.00 | 61 | 1016.4 |
| 20260504021051 | 61 | 82 | 0.0 | 2.0 | 0.00 | 0.00 | 0.00 | 61 | 1016.4 |
| 20260504020554 | 61 | 74 | 0.0 | 2.0 | 0.00 | 0.00 | 0.00 | 61 | 1016.2 |
| 20260504020105 | 61 | 0 | 0.0 | 2.0 | 0.00 | 0.00 | 0.00 | 61 | 1016.4 |
| 20260504015549 | 61 | 0 | 0.0 | 1.0 | 0.00 | 0.00 | 0.00 | 60 | 1016.3 |
| 20260504015052 | 62 | 0 | 0.0 | 1.0 | 0.00 | 0.00 | 0.00 | 59 | 1016.2 |
| 20260504014605 | 62 | 61 | 0.0 | 1.0 | 0.00 | 0.00 | 0.00 | 59 | 1016.2 |
| 20260504014051 | 62 | 62 | 0.0 | 1.0 | 0.00 | 0.00 | 0.00 | 58 | 1016.1 |
| 20260504013554 | 62 | 62 | 0.0 | 1.0 | 0.00 | 0.00 | 0.00 | 57 | 1016.1 |
| 20260504013059 | 63 | 0 | 0.0 | 1.0 | 0.00 | 0.00 | 0.00 | 57 | 1016.0 |
| 20260504012550 | 63 | 0 | 0.0 | 1.0 | 0.00 | 0.00 | 0.00 | 56 | 1016.0 |
| 20260504012048 | 63 | 0 | 0.0 | 1.0 | 0.00 | 0.00 | 0.00 | 55 | 1016.1 |
| 20260504011554 | 64 | 61 | 0.0 | 1.0 | 0.00 | 0.00 | 0.00 | 54 | 1016.1 |